Skip Page Navigation
NASA JPL Caltech
NASA Logo - Jet Propulsion Laboratory + View the NASA Portal
+ Center for Near-Earth Object Studies
JPL Home Earth Solar System Stars & Galaxies Technology
JPL Solar System Dynamics
BODIES ORBITS EPHEMERIDES TOOLS PHYSICAL DATA DISCOVERY FAQ SITE MAP
JPL Small-Body Database Browser
Search: [ help ]  
382540 (2001 TS223)
Classification: Main-belt Asteroid          SPK-ID: 2382540
Ephemeris | Orbit Diagram | Orbital Elements | Mission Design | Physical Parameters | Discovery Circumstances | Close-Approach Data ]

[ hide orbit diagram ]

For accurate long-term ephemerides, please instead use our Horizons system.This orbit viewer was implemented using two-body methods, and hence should not be used for determining accurate long-term trajectories (over several years or decades) or planetary encounter circumstances.


[ revert to old Java-based viewer ]

Orbital Elements at Epoch 2459000.5 (2020-May-31.0) TDB
Reference: JPL 12 (heliocentric ecliptic J2000)
 Element Value Uncertainty (1-sigma)   Units 
e .1256496397129241 5.5986e-08  
a 3.09362283574701 4.1975e-08 au
q 2.704910241027724 1.7417e-07 au
i 4.851329239623906 6.2754e-06 deg
node 285.53246163038 0.00011226 deg
peri 136.4800083114881 0.00011857 deg
M 124.3285756386577 3.8467e-05 deg
tp 2458314.114766804204
(2018-Jul-14.61476680)
0.00020913 TDB
period 1987.464930577519
5.44
4.045e-05
1.107e-07
d
yr
n .1811352716021968 3.6865e-09 deg/d
Q 3.482335430466296 4.7249e-08 au
  Orbit Determination Parameters
   # obs. used (total)      156  
   data-arc span      6770 days (18.54 yr)  
   first obs. used      2001-10-14  
   last obs. used      2020-04-27  
   planetary ephem.      DE431  
   SB-pert. ephem.      SB431-N16  
   condition code      0  
   norm. resid. RMS      .55367  
   source      ORB  
   producer      Otto Matic  
   solution date      2020-May-22 00:43:15  

Additional Information
 Earth MOID = 1.72069 au 
 Jupiter MOID = 1.82541 au 
 T_jup = 3.206 
[ show covariance matrix ]

Ephemeris | Orbit Diagram | Orbital Elements | Mission Design | Physical Parameters | Discovery Circumstances | Close-Approach Data ]

Physical Parameter Table
Parameter Symbol Value Units Sigma Reference Notes
absolute magnitude H 15.8   n/a MPO427904  

382540 (2001 TS223)          Discovered 2001-Oct-14 by LINEAR at Socorro
Reference: Last Updated: 2014-01-21

[ show close-approach data ]
Alternate Designations
 2001 TS223 = 2012 TJ6 
Ephemeris | Orbit Diagram | Orbital Elements | Mission Design | Physical Parameters | Discovery Circumstances | Close-Approach Data ]
ABOUT SSD CREDITS/AWARDS PRIVACY/COPYRIGHT GLOSSARY LINKS
FirstGov 2020-Oct-27 19:01 UT
(server date/time)  
NASA Home Page
Site Manager:   Ryan S. Park
Webmaster  Alan B. Chamberlin